Location: Morlupo
(42.1333°N, 12.5000°E)
Time: 16:38:39
(UTC+00:00)

Cosmos 1634 Rocket - Pass Details

Date: 18 September 2020
Orbit: 961 x 991 km, 82.9° (Epoch: 25 October)

Event Time Altitude Azimuth Distance (km) Brightness Sun altitude
Exits shadow 19:34:24 63° 109° (ESE) 1,066 3.8 -25.8°
Maximum altitude 19:34:42 64° 93° (E) 1,059 3.9 -25.9°
Drops below altitude 10° 19:40:49 10° 14° (NNE) 2,711 6.5 -26.9°
Sets 19:43:21 0° 11° (N) 3,665 7.2 -27.3°
